Regional Weather Roundup
Issued by NWS Charleston, SC

Current Version | Previous Version | Graphics & Text | Print | Product List | Glossary On
Versions: 1 2 3 4 5 6 7 8 9 10 11 12 13 14 15 16 17 18 19 20 21 22 23 24 25 26 27 28 29 30 31 32 33 34 35 36 37 38 39 40 41 42 43 44 45 46 47 48 49 50
000 ASUS42 KCHS 281226 RWRCHS REGIONAL WEATHER ROUNDUP NATIONAL WEATHER SERVICE CHARLESTON SC 700 AM EST SAT FEB 28 2015 NOTE: "FAIR" INDICATES FEW OR NO CLOUDS BELOW 12,000 FEET WITH NO SIGNIFICANT WEATHER AND/OR OBSTRUCTIONS TO VISIBILITY. NOT ALL STATIONS ARE QUALITY CONTROLLED BY THE NATIONAL WEATHER SERVICE. USE DATA WITH CAUTION...ESPECIALLY DEWPOINT OBSERVATIONS. SCZ027-030-031-034>040-042>050-281300- ...SOUTHEAST SOUTH CAROLINA... CITY SKY/WX TMP DP RH WIND PRES REMARKS N CHARLESTON CLOUDY 38 34 85 N14 30.55R WCI 30 6HR MIN TEMP: 38; 6HR MAX TEMP: 42; WATERFRONT PRK N/A 39 N/A N/A N17 N/A WCI 30 MOUNT PLEASANT LGT RAIN 37 36 93 N8 30.57R WCI 31 PINOPOLIS N/A 39 34 81 NE14 30.49R WCI 31 MONCKS CORNER FAIR 37 32 81 NE9 30.59R HAZE WCI 31 SUMMERVILLE PTSUNNY 37 34 87 N9 30.59R WCI 31 BEAUFORT MCAS CLOUDY 42 37 82 NE15 30.51R 6HR MIN TEMP: 40; 6HR MAX TEMP: 43; BEAUFORT ARPT CLOUDY 43 41 93 NE20 30.52R HILTON HEAD IS CLOUDY 46 39 76 N12G23 30.49 WALTERBORO PTSUNNY 37 34 87 NE7 30.57R WCI 32 ALLENDALE PTSUNNY 39 32 75 N9 30.57R WCI 33 ...SOUTHERN MIDLANDS AND PEE DEE... CITY SKY/WX TMP DP RH WIND PRES REMARKS GEORGETOWN NOT AVBL KINGSTREE NOT AVBL ORANGEBURG MOCLDY 35 27 72 NE10 30.59R WCI 27 6HR MIN TEMP: 35; 6HR MAX TEMP: 38; BARNWELL FAIR 37 32 81 NE10 30.59R WCI 30 AIKEN FAIR 34 28 80 NE10 30.62R WCI 26 MANNING FAIR 36 30 80 N9 30.61R WCI 29 COLUMBIA MOCLDY 35 23 61 NE8 30.62R WCI 29 6HR MIN TEMP: 35; 6HR MAX TEMP: 42; SUMTER MOCLDY 31 26 78 NE14 30.61R WCI 21 6HR MIN TEMP: 31; 6HR MAX TEMP: 37; FLORENCE PTCLDY 32 26 78 NE10 30.63R WCI 24 6HR MIN TEMP: 32; 6HR MAX TEMP: 36; MYRTLE BEACH CLEAR 34 28 80 NE12 30.61R WCI 25 N MYRTLE BEACH PTCLDY 33 27 78 N10 30.60R WCI 25 6HR MIN TEMP: 32; 6HR MAX TEMP: 37; $$ GAZ063-065-086>088-099>101-113>116-118-119-134>141-150-281300- ...SOUTHEAST GEORGIA... CITY SKY/WX TMP DP RH WIND PRES REMARKS SAVANNAH ARPT CLOUDY 44 36 73 NE9 30.49R 6HR MIN TEMP: 39; 6HR MAX TEMP: 44; HUNTER AAF CLOUDY 47 39 74 NE10G18 30.45R 6HR MIN TEMP: 43; 6HR MAX TEMP: 47; FORT STEWART CLOUDY 46 38 74 NE10 30.45R 6HR MIN TEMP: 39; 6HR MAX TEMP: 46; STATESBORO CLOUDY 40 37 87 NE5 30.53R WCI 37 SYLVANIA CLOUDY 40 37 89 NE10 30.54R WCI 33 CLAXTON CLOUDY 43 37 81 NE8 30.50R ...CSRA...CENTRAL AND FAR SOUTHEAST GEORGIA... CITY SKY/WX TMP DP RH WIND PRES REMARKS THOMSON FAIR 37 34 89 NE8 30.62R WCI 31 AUGUSTA-BUSH PTCLDY 36 30 79 N7 30.59R WCI 30 6HR MIN TEMP: 31; 6HR MAX TEMP: 37; AUGUSTA-DANIEL PTCLDY 39 27 62 NE12 30.58R WCI 32 SWAINSBORO CLOUDY 41 32 70 NE9 30.54R VIDALIA CLOUDY 43 37 81 NE8 30.49R EASTMAN CLOUDY 40 39 97 NE9 30.53R WCI 34 HAZLEHURST CLOUDY 45 38 78 NE9 30.46R ALMA CLOUDY 46 37 71 VRB6 30.44R 6HR MIN TEMP: 41; 6HR MAX TEMP: 46; WAYCROSS RAIN 50 43 77 NE8 30.43S JESUP CLOUDY 50 43 76 NE10 30.46R BAXLEY CLOUDY 46 37 71 NE12 30.45R BRUNSWICK CLOUDY 50 45 81 NE13G21 30.44R SAINT SIMONS CLOUDY 50 45 83 NE17 30.41R 6HR MIN TEMP: 49; 6HR MAX TEMP: 50; $$ SCZ027-028-034-036>038-045-046-048>050-GAZ119-141-281300- ...LAKE AND SUPPLEMENTAL COASTAL OBSERVATIONS... STATION/POSITION TIME TEMP WIND PRES WAVE SWELL AIR SEA DIR/SP/G HT/PER HT/PER/DIR (UTC) (F) (DEG/KT/KT) (MB) (FT/S) (FT/S/D) UPR LAKE MARION NOT AVBL WINYAH BAY 1100 38 30/ 10 1033.0 LAKE MURRAY 1100 33 20/ 3/ 6 1035.6R ACE BASIN NERRS NOT AVBL FORT PULASKI 1100 48 49 40/ 18/ 24 1031.3R SAPELO ISLAND 1200 49 30/ 15 1030.0R $$ ANZ835-935-AMZ111-154-330-350-352-354-370-450-454-472-281300- ...C-MAN AND BUOY OBSERVATIONS... STATION/POSITION TIME TEMP WIND PRES WAVE SWELL AIR SEA DIR/SP/G HT/PER HT/PER/DIR (UTC) (F) (DEG/KT/KT) (MB) (FT/S) (FT/S/D) BUOY 41004 1150 54 65 50/ 25/ 31 1031.5R 8/ 7 2/10 BUOY 41008 1150 53 52 40/ 19/ 25 1029.1R 6/ 7 2/100/11 FOLLY BEACH CMAN 1200 42 20/ 17/ 23 1034.1R CAPERS NEARSHORE NOT AVBL FRIPP NEARSHORE NOT AVBL STATION/POSITION TIME TEMP WIND PRES WAVE SWELL AIR SEA DIR/SP/G HT/PER HT/PER/DIR (UTC) (F) (DEG/KT/KT) (MB) (FT/S) (FT/S/D) 5E ST. MARYS GA 1121 53 N/A 5/ 8 2/110/11 FRYING PAN BUOY 1150 47 63 50/ 25/ 31 1034.4R 8/ 7 2/ 80/10 BUOY 41025 NOT AVBL CAPE LOOKOUT NC 1200 33 20/ 19/ 24 1037.3R BUOY 41002 1150 66 70 60/ 19/ 23 1029.6R 10/ 8 5/ 10/10 BUOY 41010 1120 66 70 60/ 21/ 25 1025.9R ST AUGUSTINE FL 1200 56 350/ 15/ 18 1028.1R $$

USA.gov is the U.S. government's official web portal to all federal, state and local government web resources and services.